When you browse on this site, cookies collect data to enhance your experience and personalize the content and advertising you see.
Visit our Privacy Policy to learn more. By continuing to use the site, you agree to this use of cookies and data.
  • în România
  • Lista ţărilor
  • Pe 7 zile
  • Temperatura apei
  • Meteo pe hartă
  • Widget-uri
  • user-avatar
    Intrare

    Meteo pe oră la Djelfa

    Astăzi, 26 Mai, Marţi

    Timp Temperatura Precipitaţii Vânt Presiune Umiditate
    00:00 +23°C° 0 mm 2 m/s 670 mmHg 30%
    01:00 +21°C° 0 mm 2 m/s 669 mmHg 31%
    02:00 +21°C° 0 mm 1 m/s 669 mmHg 32%
    03:00 +20°C° 0 mm 1 m/s 669 mmHg 33%
    04:00 +21°C° 0 mm 1 m/s 669 mmHg 31%
    05:00 +22°C° 0 mm 1 m/s 669 mmHg 30%
    06:00 +23°C° 0 mm 1 m/s 670 mmHg 27%
    07:00 +24°C° 0 mm 2 m/s 670 mmHg 24%
    08:00 +26°C° 0 mm 2 m/s 671 mmHg 22%
    09:00 +27°C° 0 mm 3 m/s 671 mmHg 19%
    10:00 +28°C° 0 mm 2 m/s 671 mmHg 18%
    11:00 +29°C° 0 mm 2 m/s 671 mmHg 17%
    12:00 +29°C° 0 mm 2 m/s 671 mmHg 17%
    13:00 +30°C° 0 mm 2 m/s 671 mmHg 17%
    14:00 +30°C° 0 mm 2 m/s 670 mmHg 16%
    15:00 +30°C° 0 mm 2 m/s 670 mmHg 16%
    16:00 +30°C° 0 mm 2 m/s 670 mmHg 16%
    17:00 +30°C° 0 mm 2 m/s 670 mmHg 17%
    18:00 +30°C° 0 mm 1 m/s 670 mmHg 17%
    19:00 +28°C° 0 mm 2 m/s 670 mmHg 20%
    20:00 +27°C° 0 mm 2 m/s 670 mmHg 23%
    21:00 +26°C° 0 mm 2 m/s 670 mmHg 26%
    22:00 +25°C° 0 mm 2 m/s 669 mmHg 26%
    23:00 +24°C° 0 mm 3 m/s 669 mmHg 25%

    Mâine, 27 Mai, Miercuri

    Timp Temperatura Precipitaţii Vânt Presiune Umiditate
    00:00 +24°C° 0 mm 3 m/s 669 mmHg 25%
    01:00 +22°C° 0 mm 3 m/s 669 mmHg 25%
    02:00 +22°C° 0 mm 3 m/s 669 mmHg 25%
    03:00 +21°C° 0 mm 3 m/s 669 mmHg 25%
    04:00 +22°C° 0 mm 3 m/s 669 mmHg 26%
    05:00 +23°C° 0 mm 2 m/s 669 mmHg 26%
    06:00 +24°C° 0 mm 2 m/s 669 mmHg 27%
    07:00 +25°C° 0 mm 3 m/s 670 mmHg 24%
    08:00 +27°C° 0 mm 4 m/s 670 mmHg 22%
    09:00 +28°C° 0 mm 5 m/s 671 mmHg 20%
    10:00 +29°C° 0 mm 5 m/s 671 mmHg 20%
    11:00 +29°C° 0 mm 5 m/s 670 mmHg 20%
    12:00 +30°C° 0 mm 5 m/s 670 mmHg 19%
    13:00 +30°C° 0 mm 5 m/s 670 mmHg 20%
    14:00 +29°C° 0 mm 5 m/s 670 mmHg 20%
    15:00 +29°C° 0 mm 6 m/s 669 mmHg 21%
    16:00 +28°C° 0.1 mm 5 m/s 669 mmHg 24%
    17:00 +27°C° 0.1 mm 5 m/s 669 mmHg 27%
    18:00 +26°C° 0.1 mm 5 m/s 669 mmHg 31%
    19:00 +25°C° 0 mm 4 m/s 669 mmHg 38%
    20:00 +23°C° 0 mm 4 m/s 669 mmHg 45%
    21:00 +21°C° 0 mm 4 m/s 669 mmHg 52%
    22:00 +21°C° 0 mm 3 m/s 669 mmHg 51%
    23:00 +21°C° 0 mm 2 m/s 669 mmHg 50%

    Poimâine, 28 Mai, Joi

    Timp Temperatura Precipitaţii Vânt Presiune Umiditate
    00:00 +21°C° 0 mm 1 m/s 669 mmHg 50%
    01:00 +20°C° 0 mm 2 m/s 669 mmHg 48%
    02:00 +20°C° 0 mm 3 m/s 669 mmHg 47%
    03:00 +20°C° 0 mm 4 m/s 669 mmHg 46%
    04:00 +20°C° 0 mm 5 m/s 669 mmHg 45%
    05:00 +19°C° 0 mm 6 m/s 669 mmHg 45%
    06:00 +18°C° 0 mm 7 m/s 669 mmHg 45%
    07:00 +20°C° 0 mm 7 m/s 669 mmHg 42%
    08:00 +21°C° 0 mm 7 m/s 670 mmHg 38%
    09:00 +23°C° 0 mm 7 m/s 670 mmHg 35%
    10:00 +24°C° 0 mm 7 m/s 670 mmHg 32%
    11:00 +26°C° 0 mm 7 m/s 670 mmHg 30%
    12:00 +27°C° 0 mm 6 m/s 670 mmHg 27%
    13:00 +28°C° 0.1 mm 6 m/s 669 mmHg 26%
    14:00 +28°C° 0.1 mm 6 m/s 669 mmHg 26%
    15:00 +28°C° 0.1 mm 6 m/s 669 mmHg 25%
    16:00 +26°C° 0.3 mm 5 m/s 668 mmHg 35%
    17:00 +23°C° 0.3 mm 5 m/s 667 mmHg 45%
    18:00 +21°C° 0.3 mm 5 m/s 667 mmHg 54%
    19:00 +21°C° 0.2 mm 5 m/s 667 mmHg 53%
    20:00 +20°C° 0.2 mm 4 m/s 668 mmHg 52%
    21:00 +20°C° 0.2 mm 4 m/s 668 mmHg 51%
    22:00 +20°C° 0.3 mm 3 m/s 668 mmHg 54%
    23:00 +19°C° 0.3 mm 3 m/s 668 mmHg 57%

    29 Mai, Vineri

    Timp Temperatura Precipitaţii Vânt Presiune Umiditate
    00:00 +19°C° 0.3 mm 2 m/s 668 mmHg 60%
    01:00 +19°C° 0 mm 3 m/s 667 mmHg 54%
    02:00 +19°C° 0 mm 5 m/s 667 mmHg 48%
    03:00 +20°C° 0 mm 6 m/s 667 mmHg 42%
    04:00 +19°C° 0.2 mm 6 m/s 667 mmHg 43%
    05:00 +19°C° 0.2 mm 5 m/s 667 mmHg 45%
    06:00 +19°C° 0.2 mm 4 m/s 667 mmHg 47%
    07:00 +20°C° 0.4 mm 5 m/s 667 mmHg 43%
    08:00 +21°C° 0.4 mm 6 m/s 667 mmHg 39%
    09:00 +23°C° 0.4 mm 6 m/s 668 mmHg 35%
    10:00 +24°C° 0.1 mm 6 m/s 668 mmHg 33%
    11:00 +27°C° 0.1 mm 6 m/s 667 mmHg 30%
    12:00 +28°C° 0.1 mm 6 m/s 667 mmHg 28%
    13:00 +28°C° 0.5 mm 6 m/s 667 mmHg 29%
    14:00 +27°C° 0.5 mm 6 m/s 666 mmHg 31%
    15:00 +27°C° 0.5 mm 6 m/s 665 mmHg 33%
    16:00 +26°C° 0.7 mm 5 m/s 665 mmHg 36%
    17:00 +25°C° 0.7 mm 4 m/s 664 mmHg 39%
    18:00 +24°C° 0.7 mm 3 m/s 664 mmHg 42%
    19:00 +22°C° 0.4 mm 4 m/s 664 mmHg 46%
    20:00 +21°C° 0.4 mm 5 m/s 664 mmHg 49%
    21:00 +21°C° 0.4 mm 7 m/s 665 mmHg 52%
    22:00 +20°C° 0.1 mm 5 m/s 665 mmHg 53%
    23:00 +20°C° 0.1 mm 4 m/s 664 mmHg 53%

    30 Mai, Sâmbătă

    Timp Temperatura Precipitaţii Vânt Presiune Umiditate
    00:00 +20°C° 0.1 mm 3 m/s 664 mmHg 53%
    01:00 +19°C° 0 mm 3 m/s 664 mmHg 56%
    02:00 +19°C° 0 mm 2 m/s 664 mmHg 58%
    03:00 +18°C° 0 mm 2 m/s 663 mmHg 61%
    04:00 +19°C° 0.1 mm 2 m/s 664 mmHg 63%
    05:00 +19°C° 0.1 mm 2 m/s 664 mmHg 66%
    06:00 +19°C° 0.1 mm 3 m/s 664 mmHg 68%
    07:00 +20°C° 0 mm 3 m/s 664 mmHg 61%
    08:00 +22°C° 0 mm 3 m/s 665 mmHg 54%
    09:00 +25°C° 0 mm 3 m/s 665 mmHg 48%
    10:00 +25°C° 0.1 mm 3 m/s 665 mmHg 44%
    11:00 +26°C° 0.1 mm 4 m/s 665 mmHg 41%
    12:00 +27°C° 0.1 mm 4 m/s 665 mmHg 38%
    13:00 +28°C° 0.1 mm 5 m/s 665 mmHg 36%
    14:00 +28°C° 0.1 mm 5 m/s 664 mmHg 34%
    15:00 +29°C° 0.1 mm 5 m/s 664 mmHg 32%
    16:00 +28°C° 0 mm 5 m/s 664 mmHg 34%
    17:00 +28°C° 0 mm 5 m/s 664 mmHg 35%
    18:00 +27°C° 0 mm 5 m/s 663 mmHg 37%
    19:00 +26°C° 0 mm 5 m/s 664 mmHg 40%
    20:00 +25°C° 0 mm 4 m/s 664 mmHg 44%
    21:00 +24°C° 0 mm 3 m/s 664 mmHg 47%
    22:00 +22°C° 0 mm 3 m/s 664 mmHg 52%
    23:00 +21°C° 0 mm 2 m/s 664 mmHg 57%

    31 Mai, Duminică

    Timp Temperatura Precipitaţii Vânt Presiune Umiditate
    00:00 +21°C° 0 mm 2 m/s 664 mmHg 62%
    01:00 +20°C° 0 mm 2 m/s 664 mmHg 64%
    02:00 +20°C° 0 mm 2 m/s 663 mmHg 66%
    03:00 +19°C° 0 mm 2 m/s 663 mmHg 67%
    04:00 +19°C° 0 mm 2 m/s 664 mmHg 66%
    05:00 +19°C° 0 mm 2 m/s 664 mmHg 66%
    06:00 +19°C° 0 mm 2 m/s 664 mmHg 65%
    07:00 +21°C° 0 mm 2 m/s 665 mmHg 58%
    08:00 +23°C° 0 mm 2 m/s 665 mmHg 51%
    09:00 +24°C° 0 mm 2 m/s 666 mmHg 44%
    10:00 +26°C° 0 mm 2 m/s 666 mmHg 37%
    11:00 +27°C° 0 mm 3 m/s 666 mmHg 30%
    12:00 +29°C° 0 mm 4 m/s 666 mmHg 23%
    13:00 +29°C° 0 mm 4 m/s 666 mmHg 21%
    14:00 +29°C° 0 mm 4 m/s 666 mmHg 20%
    15:00 +30°C° 0 mm 4 m/s 665 mmHg 18%
    16:00 +29°C° 0 mm 4 m/s 665 mmHg 18%
    17:00 +28°C° 0 mm 4 m/s 665 mmHg 18%
    18:00 +28°C° 0 mm 4 m/s 665 mmHg 18%
    19:00 +27°C° 0 mm 3 m/s 665 mmHg 20%
    20:00 +26°C° 0 mm 3 m/s 666 mmHg 21%
    21:00 +25°C° 0 mm 2 m/s 666 mmHg 23%
    22:00 +24°C° 0 mm 1 m/s 665 mmHg 25%
    23:00 +23°C° 0 mm 1 m/s 665 mmHg 28%
    Arată mai mult